Showing default

FLOCK 4BE 2, 60511

Orbit data source: Space-Track

FLOCK 4BE 2, 60511 is a payload satellite owned by Planet (US) in SSO that was launched on Fri, 16 Aug 2024 UTC via an FALCON 9 launch vehicle from the Air Force Western Test Range (AFWTR). Payload-class satellites include a variety of spacecraft equipped with specific instruments for various scientific and technological missions. These include communications satellites like Starlink; space stations such as the ISS; scientific satellites like the Hubble; Earth observation satellites from companies like Planet Labs, Umbra, and HawkEye 360; GPS; miniature CubeSats for education and research; and military/defense satellites.

Loading next visibility...
Identifier
60511, 2024-149AV
Orbit
SSO
Country
Flag of USUS
Related business
Manufacturer
Planet
Mission
Operational Commercial Imaging
Bus & Motor
CUBESAT 3U, Unknown motor
Mass
5.7 kg wet, 5.7 kg dry
Launch date (UTC)
2024-08-16 (1 year ago)
Launch vehicle
FALCON 9
Launch site
Air Force Western Test Range (AFWTR)
Object type
Payload
Rocket body
Debris
Shape & HBR
Box + 2 Pan, 1.0 m
Radar Cross Section
0.072 m², Medium (>0.1 m² and < 1m²)

Expand to show TLE details & history
Last TLE update: 18 hours ago

TLE from 18 hours ago
0 FLOCK 4BE 2
1 60511U 24149AV  25340.48421708  .00033147  00000-0  91988-3 0  9997
2 60511  97.4001  59.8105 0002488 252.6484 107.4488 15.36840328 72772
Epoch: 2025-12-06T11:37Z
TLE epoch observation values (Epoch: 2025-12-06T11:37:16.355Z)
Latitude
-0.00006°
Longitude
169.98107°
Altitude
459.083 km
Speed
7.637 km/s
True Right ascension
03h 59m 14s
True Declination
0° 00' 00"
Sunlit
Object was in full shadow at epoch
Visualization orbit readout
Latitude
Unknown
Longitude
Unknown
Altitude
Unknown
Speed
Unknown
Apparent Right ascension
Unknown
Apparent Declination
Unknown
Sunlit
N/A
Visualization observer readout
Local Sidereal Time
04:04:33
Azimuth
Unknown
Elevation
Unknown
Doppler factor
Unknown
Orbital elements
Apogee altitude
454.102 km
Perigee altitude
450.703 km
Semi-major axis
6,830.54 km
Eccentricity
0.00025
Inclination
97.4001°
RAAN
59.8105°
Arg. of periapsis
252.6484°
True anomaly
107.476°
Mean anomaly
107.4488°
Eccentric anomaly
107.4624°
Mean motion
3.84468 °/min
Orbital period
93.64 mins
BSTAR
0.00091988
Loading maneuver chart data...
Computing Atmospheric mass density...
Loading historical data...
Loading historical data...
Loading historical data...
Loading historical data...
Loading historical data...
Loading historical data...
Loading historical data...

Documentation

Showing up to 5 results
|